Overview Statistics Trail Chart Weather Telemetry Raw packets
 

This is the latest recevied weather packets stored in our database for station/object K2CAT. If no packets are shown the sender has not sent any weather packets the latest 10 day(s).

<< 83 84 85 86 87 88 89 >>
Time Temp. Humidity Pressure Rain* Wind** Luminosity Snow
1777094797 10° C 47% 1015 hPa 0 mm - 0 W/m² -
1777094492 10° C 47% 1015 hPa 0 mm - 0 W/m² -
1777094186 10° C 48% 1014.8 hPa 0 mm - 0 W/m² -
1777093885 10.56° C 48% 1015 hPa 0 mm - 0 W/m² -
1777093581 10.56° C 47% 1014.7 hPa 0 mm - 0 W/m² -
1777093279 10.56° C 46% 1014.6 hPa 0 mm - 0 W/m² -
1777092979 10.56° C 46% 1014.5 hPa 0 mm - 0 W/m² -
1777092674 10.56° C 46% 1014.3 hPa 0 mm - 0 W/m² -
1777092369 10.56° C 46% 1014.4 hPa 0 mm - 0 W/m² -
1777092066 10.56° C 45% 1014.3 hPa 0 mm - 0 W/m² -
1777091761 10.56° C 47% 1014.3 hPa 0 mm - 0 W/m² -
1777091457 11.11° C 48% 1014.4 hPa 0 mm - 0 W/m² -
1777091156 11.11° C 47% 1014.4 hPa 0 mm - 0 W/m² -
1777090853 11.11° C 46% 1014.3 hPa 0 mm - 0 W/m² -
1777090551 11.11° C 45% 1014.3 hPa 0 mm - 0 W/m² -
1777090246 11.11° C 44% 1014.3 hPa 0 mm - 0 W/m² -
1777089943 11.11° C 45% 1014.1 hPa 0 mm - 0 W/m² -
1777089638 11.11° C 43% 1013.9 hPa 0 mm - 0 W/m² -
1777089334 11.11° C 46% 1013.4 hPa 0 mm - 0 W/m² -
1777089029 11.11° C 45% 1013.7 hPa 0 mm - 0 W/m² -
1777088724 11.11° C 48% 1013.6 hPa 0 mm - 0 W/m² -
1777088419 10.56° C 53% 1013.6 hPa 0 mm - 0 W/m² -
1777088114 10.56° C 49% 1013.4 hPa 0 mm - 0 W/m² -
1777087809 10° C 60% 1013.6 hPa 0 mm - 0 W/m² -
1777087503 10° C 61% 1013.6 hPa 0 mm - 0 W/m² -

* Rain latest hour (hover to see other rain measurements)
** Current wind speed in m/s (hover to see current wind gust speed)